Dean International
Flight School

Career Spotlight

Mika

Mika

Congratulations to Mika from Khazakstan. She recently sent us this photo of her flying an Airbus airliner.

More...
Mika's Success Story
close

Congratulations to Mika from Khazakstan. She recently sent us this photo of her flying an Airbus airliner.

Mario

Mario

My dreams could not have been realized if I wouldn't have been part of the Dean International family.

More...
Mario's Success Story
close

"My dreams could not have been realized if I wouldn't have been part of the Dean International family. Thank you Robert, thanks to all my co-workers, and thanks to all of my students!"

Fernando

Fernando

I am now working as a First Officer at TACA and am enjoying every moment of it.

More...
Fernando's Success Story
close

"Will never forget my time of flight training at Dean International. I am now working as a First Officer at TACA and am enjoying every moment of it."

Alvaro

Alvaro

Because of the flight time I was able to built while instructing, I got the experience needed to apply to an airline in Colombia.

More...
Alvaro's Success Story
close

Dean alumnus Alvaro Londoño currently flies with Tampa Cargo. He says of his experience at Dean: "I want to take this opportunity to thank you for giving me the chance to build my experience and expand my knowledge in Dean International. Because of the flight time I was able to built flight instructing, I got the experience needed to apply to an airline in Colombia."

Ralph

Ralph

Every Aruban student of Dean International has made it into Tiara Air Aruba, that is very nice.

More...
Ralph's Success Story
close

"Next to me is my Co-Pilot, Elison. This picture was taken on our first flight together, which was almost exactly 5 years after I finished at Dean International. [...] Every Aruban student of Dean International has made it into Tiara Air Aruba. [...] The future looks bright here in Aruba."

Rohaan

Rohaan

The [..] staff will all work diligently to help you finish your certificates as safely and efficiently as possible.

More...
Rohaan's Success Story
close

After receiving very hard times from other flight schools [...], I came to Dean International where Robert Dean personally sat down with me and gave me a financial and chronological look into how much remained to finish my private pilot certificate. Through his hard efforts as an instructor and mentor, I was able to finish my private pilot certificate within one week.

Welcome to Dean International

In over two decades, Dean International has educated over 7,000 pilots from all over the world, including over 1,000 students from India alone. By offering a great training experience, a friendly service staff, an ample variety of aircraft, and by improving constantly, we have become one of the largest, most prestigious FAA 141-approved flight schools in North America. Located in Miami, Florida, USA, our flight school offers an ideal location for year-round, "learn to fly" weather, flight training. Dean International is not only well-equipped to provide services to professional trainees but also caters to General Aviation renters. Visit or contact our headquarters at Kendall-Tamiami Executive Airport located in Miami, FL today to learn more about us, or simply read more about our programs if you are an international student interested in joining our school.

Local Airport Information
TAF FOR KTMB (Issued: Tue, September 1st 2015 10:45 PM UTC)
TAF
      AMD KTMB 012144Z 0122/0218 32019G22KT P6SM BKN035
      FM012215 12008KT P6SM SCT030
      FM020100 13004KT P6SM FEW025 SCT250
      FM021500 13007KT P6SM VCSH SCT030
     
METAR FOR KTMB (Issued: Tue, September 1st 2015 9:53 PM UTC):
KTMB 012153Z 31008KT 10SM BKN033 28/22 A3005 RMK AO2 WSHFT 2132 LTG DSNT SW SLP175 T02780222

This weather information is provided by the National Weather Service.
It is automatically refreshed every three minutes.
TAF FOR KHST (Issued: Tue, September 1st 2015 9:21 PM UTC)
TAF
      AMD KHST 0121/0222 09009KT 9999 SCT025 QNH3000INS
      TEMPO 0121/0123 VRB10G15KT 9000 -TSRA BKN020CB
      BECMG 0123/0124 11006KT 9999 FEW020 QNH3001INS
      BECMG 0216/0217 09009KT 9999 SCT020 QNH2999INS TX33/0121Z TN27/0209Z
      AMD 012108
     
METAR FOR KHST (Issued: Tue, September 1st 2015 9:58 PM UTC):
KHST 012158Z AUTO 07004KT 10SM CLR 31/24 A3004 RMK AO2 RAB2059E06 SLP176 P0000 T03110242

This weather information is provided by the National Weather Service.
It is automatically refreshed every three minutes.
TAF FOR KOPF (Issued: Tue, September 1st 2015 10:48 PM UTC)
TAF
      AMD KOPF 012146Z 0122/0218 13010KT P6SM SCT030
      FM012215 33017G23KT P6SM BKN035
      FM012245 13008KT P6SM SCT035
      FM020100 13004KT P6SM FEW025 SCT250
      FM021500 11009KT P6SM VCSH SCT030
     
METAR FOR KOPF (Issued: Tue, September 1st 2015 9:53 PM UTC):
KOPF 012153Z 16004KT 10SM FEW033 SCT065 31/23 A3005 RMK AO2 LTG DSNT NW SLP175 T03110233

This weather information is provided by the National Weather Service.
It is automatically refreshed every three minutes.
TAF FOR KMIA (Issued: Tue, September 1st 2015 10:51 PM UTC)
TAF
      AMD KMIA 012147Z 0122/0218 13008KT P6SM SCT030 SCT070 SCT250
      FM012215 33016G24KT P6SM BKN035
      FM012245 13007KT P6SM SCT035
      FM020100 13004KT P6SM FEW025 SCT250
      FM021500 12007KT P6SM VCSH SCT030
     
METAR FOR KMIA (Issued: Tue, September 1st 2015 9:53 PM UTC):
KMIA 012153Z 26009KT 10SM SCT030TCU BKN046 BKN070 BKN250 29/24 A3005 RMK AO2 SLP175 CB DSNT SW AND NW TCU OHD T02940244

This weather information is provided by the National Weather Service.
It is automatically refreshed every three minutes.
Design by Ariel Llizo
© Dean International Inc. 2012